Terug naar catalogus

STARLINK-36263

ActiefCommunicatieVLEO
NORAD 67202·PAYLOAD·🇺🇸 United States

Gelanceerd Dec 17, 2025 vanaf Vandenberg Space Force Base

Loading…

Volgende Passages (komende 24 uur)

TLE

VersSource: CelesTrak SupGP

Epoch: Sep 15, 2026, 03:47 UTC

1 67202C 25304L   26258.15812500 -.00022648  00000+0 -18990-2 0  2586
2 67202  70.0014  56.8196 0002677 267.0774  79.2353 14.98322985    12

Volg STARLINK-36263 in realtime met AllMySat

Download on the App Store